• In Österreich
  • Länderverzeichnis
  • Für 7 Tage
  • Wassertemperatur
  • Satellitenkarten
  • Wetterkarte
  • News
  • Widgets
  • user-avatar
    Anmelden

    Stündliche Wetter Tomarza

    Heute, 22 Juli, Sonntag

    Zeit Temperatur Niederschläge Wind Luftdruck Luftfeuchtigkeit
    00:00 +18°C° 0 mm 2 m/S 638 mmHg 66%
    01:00 +17°C° 0 mm 2 m/S 638 mmHg 70%
    02:00 +17°C° 0 mm 2 m/S 638 mmHg 73%
    03:00 +16°C° 0 mm 2 m/S 638 mmHg 74%
    04:00 +16°C° 0 mm 2 m/S 638 mmHg 76%
    05:00 +16°C° 0 mm 2 m/S 638 mmHg 77%
    06:00 +17°C° 0 mm 2 m/S 638 mmHg 66%
    07:00 +19°C° 0 mm 2 m/S 639 mmHg 55%
    08:00 +21°C° 0 mm 3 m/S 639 mmHg 44%
    09:00 +24°C° 0 mm 3 m/S 640 mmHg 39%
    10:00 +25°C° 0 mm 4 m/S 640 mmHg 34%
    11:00 +27°C° 0 mm 4 m/S 640 mmHg 30%
    12:00 +28°C° 0 mm 5 m/S 640 mmHg 28%
    13:00 +28°C° 0 mm 5 m/S 640 mmHg 27%
    14:00 +29°C° 0 mm 5 m/S 640 mmHg 25%
    15:00 +29°C° 0 mm 6 m/S 639 mmHg 26%
    16:00 +28°C° 0 mm 6 m/S 639 mmHg 28%
    17:00 +28°C° 0 mm 6 m/S 639 mmHg 29%
    18:00 +26°C° 0 mm 5 m/S 638 mmHg 34%
    19:00 +23°C° 0 mm 4 m/S 638 mmHg 39%
    20:00 +22°C° 0 mm 3 m/S 638 mmHg 45%
    21:00 +21°C° 0 mm 2 m/S 638 mmHg 49%
    22:00 +20°C° 0 mm 2 m/S 638 mmHg 54%
    23:00 +19°C° 0 mm 2 m/S 638 mmHg 59%

    Morgen, 23 Juli, Montag

    Zeit Temperatur Niederschläge Wind Luftdruck Luftfeuchtigkeit
    00:00 +18°C° 0 mm 2 m/S 638 mmHg 61%
    01:00 +19°C° 0 mm 1 m/S 637 mmHg 64%
    02:00 +18°C° 0 mm 1 m/S 637 mmHg 67%
    03:00 +18°C° 0 mm 1 m/S 637 mmHg 68%
    04:00 +18°C° 0 mm 1 m/S 637 mmHg 69%
    05:00 +16°C° 0 mm 1 m/S 637 mmHg 70%
    06:00 +18°C° 0 mm 2 m/S 637 mmHg 62%
    07:00 +20°C° 0 mm 2 m/S 638 mmHg 53%
    08:00 +23°C° 0 mm 2 m/S 638 mmHg 45%
    09:00 +25°C° 0 mm 3 m/S 639 mmHg 41%
    10:00 +26°C° 0 mm 3 m/S 639 mmHg 37%
    11:00 +27°C° 0 mm 4 m/S 639 mmHg 32%
    12:00 +28°C° 0 mm 4 m/S 639 mmHg 30%
    13:00 +29°C° 0 mm 5 m/S 638 mmHg 27%
    14:00 +29°C° 0 mm 5 m/S 638 mmHg 25%
    15:00 +29°C° 0 mm 5 m/S 638 mmHg 25%
    16:00 +29°C° 0 mm 5 m/S 638 mmHg 25%
    17:00 +29°C° 0 mm 5 m/S 638 mmHg 25%
    18:00 +27°C° 0 mm 4 m/S 637 mmHg 30%
    19:00 +25°C° 0 mm 3 m/S 637 mmHg 35%
    20:00 +23°C° 0 mm 2 m/S 637 mmHg 39%
    21:00 +21°C° 0 mm 2 m/S 637 mmHg 43%
    22:00 +21°C° 0 mm 1 m/S 637 mmHg 46%
    23:00 +20°C° 0 mm 1 m/S 637 mmHg 49%

    übermorgen, 24 Juli, Dienstag

    Zeit Temperatur Niederschläge Wind Luftdruck Luftfeuchtigkeit
    00:00 +20°C° 0 mm 1 m/S 636 mmHg 49%
    01:00 +19°C° 0 mm 1 m/S 636 mmHg 49%
    02:00 +19°C° 0 mm 1 m/S 636 mmHg 48%
    03:00 +19°C° 0 mm 1 m/S 636 mmHg 49%
    04:00 +19°C° 0 mm 1 m/S 636 mmHg 50%
    05:00 +18°C° 0 mm 1 m/S 635 mmHg 50%
    06:00 +21°C° 0 mm 1 m/S 636 mmHg 43%
    07:00 +24°C° 0 mm 1 m/S 637 mmHg 35%
    08:00 +27°C° 0 mm 2 m/S 638 mmHg 28%
    09:00 +28°C° 0 mm 2 m/S 638 mmHg 26%
    10:00 +29°C° 0 mm 3 m/S 638 mmHg 23%
    11:00 +31°C° 0 mm 3 m/S 638 mmHg 21%
    12:00 +32°C° 0 mm 4 m/S 638 mmHg 22%
    13:00 +33°C° 0 mm 5 m/S 638 mmHg 22%
    14:00 +33°C° 0 mm 5 m/S 638 mmHg 23%
    15:00 +32°C° 0,2 mm 5 m/S 637 mmHg 29%
    16:00 +30°C° 0,2 mm 5 m/S 637 mmHg 34%
    17:00 +29°C° 0,2 mm 5 m/S 637 mmHg 40%
    18:00 +27°C° 0,2 mm 4 m/S 636 mmHg 47%
    19:00 +25°C° 0,2 mm 4 m/S 636 mmHg 54%
    20:00 +24°C° 0,2 mm 3 m/S 636 mmHg 61%
    21:00 +22°C° 0 mm 3 m/S 636 mmHg 65%
    22:00 +21°C° 0 mm 2 m/S 636 mmHg 70%
    23:00 +20°C° 0 mm 2 m/S 636 mmHg 74%

    25 Juli, Mittwoch

    Zeit Temperatur Niederschläge Wind Luftdruck Luftfeuchtigkeit
    00:00 +20°C° 0 mm 2 m/S 636 mmHg 75%
    01:00 +19°C° 0 mm 2 m/S 635 mmHg 76%
    02:00 +18°C° 0 mm 2 m/S 635 mmHg 77%
    03:00 +18°C° 0 mm 2 m/S 635 mmHg 77%
    04:00 +18°C° 0 mm 2 m/S 635 mmHg 77%
    05:00 +19°C° 0 mm 1 m/S 635 mmHg 77%
    06:00 +21°C° 0 mm 1 m/S 636 mmHg 67%
    07:00 +23°C° 0 mm 2 m/S 637 mmHg 56%
    08:00 +25°C° 0 mm 2 m/S 638 mmHg 46%
    09:00 +26°C° 0 mm 2 m/S 638 mmHg 41%
    10:00 +27°C° 0 mm 2 m/S 638 mmHg 36%
    11:00 +28°C° 0 mm 2 m/S 638 mmHg 31%
    12:00 +29°C° 0 mm 3 m/S 638 mmHg 30%
    13:00 +30°C° 0 mm 3 m/S 638 mmHg 28%
    14:00 +30°C° 0 mm 3 m/S 638 mmHg 27%
    15:00 +30°C° 0 mm 4 m/S 638 mmHg 29%
    16:00 +29°C° 0 mm 4 m/S 638 mmHg 31%
    17:00 +29°C° 0 mm 4 m/S 638 mmHg 33%
    18:00 +27°C° 0 mm 4 m/S 638 mmHg 41%
    19:00 +25°C° 0 mm 3 m/S 637 mmHg 49%
    20:00 +23°C° 0 mm 2 m/S 637 mmHg 58%
    21:00 +21°C° 0 mm 2 m/S 637 mmHg 63%
    22:00 +21°C° 0 mm 1 m/S 637 mmHg 69%
    23:00 +20°C° 0 mm 1 m/S 637 mmHg 74%

    26 Juli, Donnerstag

    Zeit Temperatur Niederschläge Wind Luftdruck Luftfeuchtigkeit
    00:00 +20°C° 0 mm 1 m/S 636 mmHg 75%
    01:00 +19°C° 0 mm 1 m/S 636 mmHg 75%
    02:00 +19°C° 0 mm 1 m/S 636 mmHg 76%
    03:00 +19°C° 0 mm 1 m/S 636 mmHg 75%
    04:00 +16°C° 0 mm 0 m/S 636 mmHg 74%
    05:00 +16°C° 0 mm 0 m/S 636 mmHg 74%
    06:00 +21°C° 0 mm 1 m/S 637 mmHg 62%
    07:00 +23°C° 0 mm 1 m/S 638 mmHg 51%
    08:00 +26°C° 0 mm 1 m/S 639 mmHg 40%
    09:00 +28°C° 0 mm 1 m/S 639 mmHg 36%
    10:00 +29°C° 0 mm 1 m/S 639 mmHg 31%
    11:00 +30°C° 0 mm 2 m/S 639 mmHg 27%
    12:00 +31°C° 0 mm 2 m/S 639 mmHg 26%
    13:00 +31°C° 0 mm 2 m/S 639 mmHg 26%
    14:00 +33°C° 0 mm 3 m/S 639 mmHg 26%
    15:00 +31°C° 0 mm 3 m/S 639 mmHg 28%
    16:00 +30°C° 0 mm 3 m/S 639 mmHg 30%
    17:00 +30°C° 0 mm 4 m/S 638 mmHg 33%
    18:00 +28°C° 0 mm 3 m/S 638 mmHg 40%
    19:00 +26°C° 0 mm 3 m/S 638 mmHg 48%
    20:00 +24°C° 0 mm 3 m/S 638 mmHg 55%
    21:00 +23°C° 0 mm 2 m/S 638 mmHg 61%
    22:00 +21°C° 0 mm 2 m/S 638 mmHg 66%
    23:00 +21°C° 0 mm 1 m/S 637 mmHg 72%

    27 Juli, Freitag

    Zeit Temperatur Niederschläge Wind Luftdruck Luftfeuchtigkeit
    00:00 +21°C° 0 mm 1 m/S 637 mmHg 74%
    01:00 +20°C° 0 mm 1 m/S 637 mmHg 76%
    02:00 +18°C° 0 mm 0 m/S 637 mmHg 79%
    03:00 +19°C° 0 mm 1 m/S 637 mmHg 78%
    04:00 +19°C° 0 mm 1 m/S 637 mmHg 78%
    05:00 +19°C° 0 mm 1 m/S 637 mmHg 77%
    06:00 +21°C° 0 mm 1 m/S 638 mmHg 66%
    07:00 +24°C° 0 mm 1 m/S 639 mmHg 54%
    08:00 +26°C° 0 mm 2 m/S 639 mmHg 43%
    09:00 +28°C° 0 mm 2 m/S 640 mmHg 37%
    10:00 +29°C° 0 mm 3 m/S 640 mmHg 31%
    11:00 +31°C° 0 mm 3 m/S 640 mmHg 26%
    12:00 +33°C° 0 mm 3 m/S 640 mmHg 25%
    13:00 +33°C° 0 mm 3 m/S 640 mmHg 24%
    14:00 +34°C° 0 mm 3 m/S 640 mmHg 23%
    15:00 +33°C° 0 mm 3 m/S 640 mmHg 24%
    16:00 +32°C° 0 mm 4 m/S 639 mmHg 26%
    17:00 +32°C° 0 mm 4 m/S 639 mmHg 28%
    18:00 +29°C° 0 mm 4 m/S 639 mmHg 35%
    19:00 +27°C° 0 mm 3 m/S 639 mmHg 42%
    20:00 +25°C° 0 mm 3 m/S 638 mmHg 49%
    21:00 +24°C° 0 mm 3 m/S 638 mmHg 54%
    22:00 +23°C° 0 mm 2 m/S 638 mmHg 58%
    23:00 +21°C° 0 mm 2 m/S 638 mmHg 63%
    Mehr zeigen